TimeAKST,TemperatureF,Dew PointF,Humidity,Sea Level PressureIn,VisibilityMPH,Wind Direction,Wind SpeedMPH,Gust SpeedMPH,PrecipitationIn,Events,Conditions,WindDirDegrees,DateUTC
12:09 AM,26.6,26.6,100,30.38,10.0,NE,3.5,-,N/A,,Overcast,50,2013-12-09 09:09:00
12:53 AM,28.0,28.0,100,30.39,10.0,NNE,3.5,-,N/A,,Overcast,20,2013-12-09 09:53:00
1:53 AM,28.0,27.0,96,30.38,10.0,NE,6.9,-,0.00,,Overcast,40,2013-12-09 10:53:00
3:53 AM,28.9,28.0,96,30.35,10.0,NNE,4.6,-,N/A,,Overcast,20,2013-12-09 12:53:00
4:53 AM,28.9,28.0,96,30.35,10.0,NNE,4.6,-,N/A,,Overcast,30,2013-12-09 13:53:00
5:53 AM,28.9,28.9,100,30.34,4.0,NNE,6.9,-,0.00,,Overcast,20,2013-12-09 14:53:00
6:18 AM,30.2,30.2,100,30.33,3.0,NNE,8.1,-,N/A,,Overcast,20,2013-12-09 15:18:00
6:45 AM,30.2,30.2,100,30.33,5.0,NNE,6.9,-,N/A,,Overcast,20,2013-12-09 15:45:00
6:53 AM,30.0,30.0,100,30.34,6.0,NNE,8.1,-,N/A,,Overcast,30,2013-12-09 15:53:00
7:38 AM,30.2,30.2,100,30.32,6.0,NNE,5.8,-,N/A,,Overcast,30,2013-12-09 16:38:00
7:53 AM,30.0,30.0,100,30.33,5.0,NNE,5.8,-,N/A,,Overcast,20,2013-12-09 16:53:00
8:53 AM,30.0,30.0,100,30.33,10.0,North,5.8,-,N/A,,Overcast,360,2013-12-09 17:53:00
9:10 AM,30.2,30.2,100,30.32,10.0,North,5.8,-,N/A,,Overcast,10,2013-12-09 18:10:00
9:28 AM,30.2,30.2,100,30.32,6.0,North,6.9,-,N/A,,Overcast,360,2013-12-09 18:28:00
9:53 AM,30.0,30.0,100,30.34,4.0,North,6.9,-,N/A,,Overcast,10,2013-12-09 18:53:00
10:15 AM,30.2,30.2,100,30.32,2.0,NNE,9.2,-,N/A,,Overcast,20,2013-12-09 19:15:00
10:53 AM,30.0,30.0,100,30.34,2.0,NNE,6.9,-,N/A,,Overcast,30,2013-12-09 19:53:00
11:53 AM,30.9,30.9,100,30.34,2.0,NNE,3.5,-,N/A,,Overcast,20,2013-12-09 20:53:00
12:53 PM,30.9,30.9,100,30.33,2.0,North,8.1,-,N/A,,Overcast,10,2013-12-09 21:53:00
1:53 PM,30.9,30.9,100,30.33,2.0,North,6.9,-,N/A,,Overcast,10,2013-12-09 22:53:00
2:53 PM,30.9,30.9,100,30.31,2.0,NNE,5.8,-,N/A,,Overcast,20,2013-12-09 23:53:00
3:53 PM,30.0,30.0,100,30.29,2.0,NNE,5.8,-,N/A,,Overcast,30,2013-12-10 00:53:00
4:53 PM,30.0,30.0,100,30.28,3.0,NE,6.9,-,N/A,,Overcast,40,2013-12-10 01:53:00
5:49 PM,30.2,30.2,100,30.27,3.0,NNE,6.9,-,N/A,,Overcast,20,2013-12-10 02:49:00
5:53 PM,30.0,30.0,100,30.27,3.0,NNE,6.9,-,N/A,,Overcast,20,2013-12-10 02:53:00
5:58 PM,30.2,30.2,100,30.27,2.5,NNE,6.9,-,N/A,,Overcast,20,2013-12-10 02:58:00
6:53 PM,30.0,30.0,100,30.26,2.5,NNE,8.1,-,N/A,,Overcast,20,2013-12-10 03:53:00
6:59 PM,30.2,30.2,100,30.25,4.0,NNE,8.1,-,N/A,,Overcast,20,2013-12-10 03:59:00
7:53 PM,30.0,30.0,100,30.26,5.0,NNE,5.8,-,N/A,,Overcast,30,2013-12-10 04:53:00
8:22 PM,30.2,30.2,100,30.25,2.5,NNE,6.9,-,N/A,,Overcast,20,2013-12-10 05:22:00
8:53 PM,30.0,30.0,100,30.26,2.5,NNE,6.9,-,N/A,,Overcast,20,2013-12-10 05:53:00
9:20 PM,30.2,30.2,100,30.25,3.0,North,6.9,-,N/A,,Overcast,10,2013-12-10 06:20:00
9:31 PM,30.2,30.2,100,30.25,5.0,NNE,8.1,-,N/A,,Overcast,30,2013-12-10 06:31:00
9:53 PM,30.0,30.0,100,30.25,6.0,NE,9.2,-,N/A,,Overcast,40,2013-12-10 06:53:00
10:53 PM,30.0,30.0,100,30.25,5.0,NNE,6.9,-,N/A,,Overcast,30,2013-12-10 07:53:00
11:30 PM,30.2,30.2,100,30.23,2.5,North,5.8,-,N/A,,Overcast,10,2013-12-10 08:30:00
11:53 PM,30.0,30.0,100,30.23,2.0,NNE,6.9,-,N/A,,Overcast,20,2013-12-10 08:53:00